,,,PA_Meas_PMT16A,,PR_Meas_QMR101_102,,RH_Meas_QMH101,,SR_Meas_QMS101,,TA_Meas_QMH101,,GenWind,,GenWind,
date,time,status,PA,status,PR,status,RH,status,SR,status,TA,status,DirAvg,status,SpdAvg,
2011-02-19, 00:00:04,VALID,1000.31,VALID,0,VALID,90.6628,VALID,0,VALID,23.8786,VALID,109,VALID,0.929297,
2011-02-19, 00:01:04,VALID,1000.31,VALID,0,VALID,90.5407,VALID,0,VALID,23.8768,VALID,121,VALID,1.19336,
2011-02-19, 00:02:04,VALID,1000.3,VALID,0,VALID,90.3118,VALID,0,VALID,23.8573,VALID,127,VALID,1.28047,
2011-02-19, 00:03:04,VALID,1000.3,VALID,0,VALID,90.1897,VALID,0,VALID,23.8573,VALID,127,VALID,1.26953,
2011-02-19, 00:04:04,VALID,1000.31,VALID,0,VALID,90.1897,VALID,0,VALID,23.8573,VALID,141,VALID,1.10508,
2011-02-19, 00:05:04,VALID,1000.3,VALID,0,VALID,90.1592,VALID,0,VALID,23.8573,VALID,147,VALID,1.00703,
2011-02-19, 00:06:04,VALID,1000.28,VALID,0,VALID,90.0448,VALID,0,VALID,23.836,VALID,138,VALID,1.16836,
2011-02-19, 00:07:04,VALID,1000.25,VALID,0,VALID,89.9227,VALID,0.112286,VALID,23.8183,VALID,124,VALID,1.11094,
2011-02-19, 00:08:04,VALID,1000.27,VALID,0,VALID,89.8083,VALID,0,VALID,23.8183,VALID,146,VALID,0.639453,
2011-02-19, 00:09:04,VALID,1000.21,VALID,0,VALID,89.7777,VALID,0,VALID,23.7988,VALID,143,VALID,0.885938,
2011-02-19, 00:10:04,VALID,1000.19,VALID,0,VALID,89.6404,VALID,0,VALID,23.7793,VALID,131,VALID,0.799609,
2011-02-19, 00:11:04,VALID,1000.11,VALID,0,VALID,89.4573,VALID,0,VALID,23.7988,VALID,133,VALID,0.410547,
2011-02-19, 00:12:04,VALID,1000.11,VALID,0,VALID,89.4115,VALID,0,VALID,23.8183,VALID,133,VALID,0.103906,
2011-02-19, 00:13:04,VALID,1000.08,VALID,0,VALID,89.3581,VALID,0,VALID,23.8183,VALID,133,VALID,0,
2011-02-19, 00:14:04,VALID,1000.06,VALID,0,VALID,89.381,VALID,0,VALID,23.8183,VALID,133,VALID,0.0015625,
2011-02-19, 00:15:04,VALID,1000.01,VALID,0,VALID,89.4802,VALID,0,VALID,23.8183,VALID,133,VALID,0.220313,
2011-02-19, 00:16:04,VALID,1000.02,VALID,0,VALID,89.526,VALID,0,VALID,23.8183,VALID,133,VALID,0.357422,
2011-02-19, 00:17:04,VALID,999.97,VALID,0,VALID,89.6251,VALID,0,VALID,23.8183,VALID,133,VALID,0.430078,
2011-02-19, 00:18:04,VALID,999.969,VALID,0,VALID,89.7091,VALID,0,VALID,23.7988,VALID,133,VALID,0.282422,
2011-02-19, 00:19:04,VALID,999.958,VALID,0,VALID,89.8388,VALID,0,VALID,23.7793,VALID,133,VALID,0.206641,
2011-02-19, 00:20:04,VALID,999.955,VALID,0,VALID,89.9074,VALID,0,VALID,23.7597,VALID,133,VALID,0.111719,
2011-02-19, 00:21:04,VALID,999.973,VALID,0,VALID,89.9761,VALID,0,VALID,23.7402,VALID,133,VALID,0,
2011-02-19, 00:22:04,VALID,1000.01,VALID,0,VALID,89.999,VALID,0,VALID,23.6994,VALID,133,VALID,0,
2011-02-19, 00:23:04,VALID,999.963,VALID,0,VALID,90.0295,VALID,0,VALID,23.7012,VALID,133,VALID,0,
2011-02-19, 00:24:04,VALID,999.998,VALID,0,VALID,90.0829,VALID,0,VALID,23.6799,VALID,133,VALID,0.252734,
2011-02-19, 00:25:04,VALID,999.991,VALID,0,VALID,90.0982,VALID,0,VALID,23.7012,VALID,133,VALID,0.0816406,
2011-02-19, 00:26:04,VALID,1000.02,VALID,0,VALID,90.1745,VALID,0,VALID,23.7012,VALID,133,VALID,0.329297,
2011-02-19, 00:27:04,VALID,1000.01,VALID,0,VALID,90.1974,VALID,0,VALID,23.6622,VALID,133,VALID,0.519531,
2011-02-19, 00:28:04,VALID,1000.03,VALID,0,VALID,90.2966,VALID,0,VALID,23.7012,VALID,133,VALID,0.770312,
2011-02-19, 00:29:04,VALID,1000.04,VALID,0,VALID,90.3423,VALID,0,VALID,23.7402,VALID,133,VALID,0.858594,
2011-02-19, 00:30:04,VALID,1000.03,VALID,0,VALID,90.1745,VALID,0,VALID,23.7402,VALID,133,VALID,1.03516,
2011-02-19, 00:31:04,VALID,1000.04,VALID,0,VALID,90.0524,VALID,0,VALID,23.7793,VALID,133,VALID,0.862109,
2011-02-19, 00:32:04,VALID,1000.02,VALID,0,VALID,89.8922,VALID,0,VALID,23.7793,VALID,127,VALID,0.714453,
2011-02-19, 00:33:04,VALID,1000.04,VALID,0,VALID,89.8311,VALID,0,VALID,23.7793,VALID,127,VALID,0.496875,
2011-02-19, 00:34:04,VALID,1000.01,VALID,0,VALID,89.8006,VALID,0,VALID,23.7597,VALID,127,VALID,0.635547,
2011-02-19, 00:35:04,VALID,999.996,VALID,0,VALID,89.732,VALID,0,VALID,23.7597,VALID,143,VALID,0.616016,
2011-02-19, 00:36:04,VALID,999.982,VALID,0,VALID,89.3276,VALID,0,VALID,23.6994,VALID,132,VALID,1.08438,
2011-02-19, 00:37:04,VALID,999.932,VALID,0,VALID,88.9843,VALID,0,VALID,23.7402,VALID,144,VALID,1.01719,
2011-02-19, 00:38:04,VALID,999.929,VALID,0,VALID,88.7783,VALID,0,VALID,23.7597,VALID,147,VALID,0.765234,
2011-02-19, 00:39:04,VALID,999.911,VALID,0,VALID,88.6486,VALID,0,VALID,23.7579,VALID,150,VALID,0.802734,
2011-02-19, 00:40:04,VALID,999.881,VALID,0,VALID,88.6028,VALID,0,VALID,23.7597,VALID,152,VALID,0.781641,
2011-02-19, 00:41:04,VALID,999.876,VALID,0,VALID,88.5036,VALID,0,VALID,23.7988,VALID,168,VALID,0.916016,
2011-02-19, 00:42:04,VALID,999.863,VALID,0,VALID,88.4197,VALID,0,VALID,23.8183,VALID,168,VALID,0.645312,
2011-02-19, 00:43:04,VALID,999.859,VALID,0,VALID,88.3205,VALID,0,VALID,23.8573,VALID,171,VALID,0.700391,
2011-02-19, 00:44:04,VALID,999.833,VALID,0,VALID,88.1832,VALID,0,VALID,23.9159,VALID,165,VALID,0.944531,
2011-02-19, 00:45:04,VALID,999.849,VALID,0,VALID,88.0229,VALID,0,VALID,23.9159,VALID,155,VALID,0.548437,
2011-02-19, 00:46:04,VALID,999.835,VALID,0,VALID,87.9314,VALID,0,VALID,23.9354,VALID,155,VALID,0.245312,
2011-02-19, 00:47:04,VALID,999.805,VALID,0,VALID,87.8322,VALID,0,VALID,23.9354,VALID,155,VALID,0.493359,
2011-02-19, 00:48:04,VALID,999.837,VALID,0,VALID,87.8474,VALID,0,VALID,23.9354,VALID,145,VALID,0.562109,
2011-02-19, 00:49:04,VALID,999.834,VALID,0,VALID,87.8169,VALID,0,VALID,23.9354,VALID,145,VALID,0.542969,
2011-02-19, 00:50:04,VALID,999.811,VALID,0,VALID,87.8017,VALID,0,VALID,23.9354,VALID,123,VALID,0.645703,
2011-02-19, 00:51:04,VALID,999.811,VALID,0,VALID,87.8627,VALID,0,VALID,23.9159,VALID,81,VALID,0.776953,
2011-02-19, 00:52:04,VALID,999.819,VALID,0,VALID,88,VALID,0,VALID,23.8963,VALID,63,VALID,0.850781,
2011-02-19, 00:53:04,VALID,999.811,VALID,0,VALID,88.2137,VALID,0,VALID,23.8573,VALID,63,VALID,0.678516,
2011-02-19, 00:54:04,VALID,999.781,VALID,0,VALID,88.4578,VALID,0,VALID,23.8378,VALID,63,VALID,0.516016,
2011-02-19, 00:55:04,VALID,999.758,VALID,0,VALID,88.6257,VALID,0,VALID,23.8183,VALID,63,VALID,0.207813,
2011-02-19, 00:56:04,VALID,999.723,VALID,0,VALID,88.7249,VALID,0,VALID,23.7793,VALID,63,VALID,0.314453,
2011-02-19, 00:57:04,VALID,999.717,VALID,0,VALID,88.7935,VALID,0,VALID,23.7597,VALID,63,VALID,0.243359,
2011-02-19, 00:58:04,VALID,999.715,VALID,0,VALID,88.8698,VALID,0,VALID,23.7402,VALID,63,VALID,0.187109,
2011-02-19, 00:59:04,VALID,999.706,VALID,0,VALID,88.969,VALID,0,VALID,23.7207,VALID,63,VALID,0.238672,
2011-02-19, 01:00:04,VALID,999.678,VALID,0,VALID,89.0911,VALID,0,VALID,23.703,VALID,63,VALID,0.174609,
2011-02-19, 01:01:04,VALID,999.677,VALID,0,VALID,89.1903,VALID,0,VALID,23.6817,VALID,57,VALID,0.398828,
2011-02-19, 01:02:04,VALID,999.648,VALID,0,VALID,89.2589,VALID,0,VALID,23.6817,VALID,57,VALID,0.2375,
2011-02-19, 01:03:04,VALID,999.617,VALID,0,VALID,89.3428,VALID,0,VALID,23.6622,VALID,57,VALID,0.128516,
2011-02-19, 01:04:04,VALID,999.571,VALID,0,VALID,89.4268,VALID,0,VALID,23.6427,VALID,57,VALID,0.358594,
2011-02-19, 01:05:04,VALID,999.551,VALID,0,VALID,89.5946,VALID,0,VALID,23.6232,VALID,57,VALID,0.497266,
2011-02-19, 01:06:04,VALID,999.512,VALID,0,VALID,89.8311,VALID,0,VALID,23.6232,VALID,57,VALID,0.544141,
2011-02-19, 01:07:04,VALID,999.494,VALID,0,VALID,90.0677,VALID,0,VALID,23.6232,VALID,57,VALID,0.480859,
2011-02-19, 01:08:04,VALID,999.463,VALID,0,VALID,90.2279,VALID,0,VALID,23.6036,VALID,57,VALID,0.463281,
2011-02-19, 01:09:04,VALID,999.45,VALID,0,VALID,90.3423,VALID,0,VALID,23.6036,VALID,57,VALID,0.335938,
2011-02-19, 01:10:04,VALID,999.412,VALID,0,VALID,90.472,VALID,0,VALID,23.6036,VALID,57,VALID,0.353125,
2011-02-19, 01:11:04,VALID,999.412,VALID,0,VALID,90.556,VALID,0,VALID,23.5841,VALID,57,VALID,0.221875,
2011-02-19, 01:12:04,VALID,999.405,VALID,0,VALID,90.6246,VALID,0,VALID,23.5841,VALID,57,VALID,0.132031,
2011-02-19, 01:13:04,VALID,999.393,VALID,0,VALID,90.6551,VALID,0,VALID,23.5646,VALID,57,VALID,0.214844,
2011-02-19, 01:14:04,VALID,999.364,VALID,0,VALID,90.7162,VALID,0,VALID,23.5451,VALID,57,VALID,0.296875,
2011-02-19, 01:15:04,VALID,999.348,VALID,0,VALID,90.7696,VALID,0,VALID,23.5451,VALID,57,VALID,0.260938,
2011-02-19, 01:16:04,VALID,999.348,VALID,0,VALID,90.7849,VALID,0,VALID,23.5451,VALID,57,VALID,0.15,
2011-02-19, 01:17:04,VALID,999.316,VALID,0,VALID,90.8001,VALID,0,VALID,23.5256,VALID,57,VALID,0,
2011-02-19, 01:18:04,VALID,999.284,VALID,0,VALID,90.7772,VALID,0,VALID,23.5451,VALID,57,VALID,0,
2011-02-19, 01:19:04,VALID,999.28,VALID,0,VALID,90.7696,VALID,0,VALID,23.5256,VALID,57,VALID,0,
2011-02-19, 01:20:04,VALID,999.256,VALID,0,VALID,90.7925,VALID,0,VALID,23.5256,VALID,57,VALID,0,
2011-02-19, 01:21:04,VALID,999.242,VALID,0,VALID,90.7925,VALID,0,VALID,23.5451,VALID,57,VALID,0,
2011-02-19, 01:22:04,VALID,999.231,VALID,0,VALID,90.7543,VALID,0,VALID,23.5451,VALID,57,VALID,0,
2011-02-19, 01:23:04,VALID,999.242,VALID,0,VALID,90.7314,VALID,0,VALID,23.5451,VALID,57,VALID,0,
2011-02-19, 01:24:04,VALID,999.212,VALID,0,VALID,90.7085,VALID,0,VALID,23.5451,VALID,57,VALID,0,
2011-02-19, 01:25:04,VALID,999.208,VALID,0,VALID,90.617,VALID,0,VALID,23.5256,VALID,57,VALID,0,
2011-02-19, 01:26:04,VALID,999.215,VALID,0,VALID,90.617,VALID,0,VALID,23.5256,VALID,57,VALID,0,
2011-02-19, 01:27:04,VALID,999.177,VALID,0,VALID,90.6399,VALID,0,VALID,23.5256,VALID,57,VALID,0,
2011-02-19, 01:28:04,VALID,999.187,VALID,0,VALID,90.6857,VALID,0,VALID,23.5061,VALID,57,VALID,0,
2011-02-19, 01:29:04,VALID,999.138,VALID,0,VALID,90.7772,VALID,0,VALID,23.5061,VALID,57,VALID,0,
2011-02-19, 01:30:04,VALID,999.14,VALID,0,VALID,90.7925,VALID,0,VALID,23.4671,VALID,57,VALID,0,
2011-02-19, 01:31:04,VALID,999.087,VALID,0,VALID,90.8535,VALID,0,VALID,23.4475,VALID,57,VALID,0,
2011-02-19, 01:32:04,VALID,999.088,VALID,0,VALID,90.9756,VALID,0,VALID,23.4475,VALID,57,VALID,0,
2011-02-19, 01:33:04,VALID,999.074,VALID,0,VALID,91.0824,VALID,0,VALID,23.4475,VALID,57,VALID,0,
2011-02-19, 01:34:04,VALID,999.054,VALID,0,VALID,91.1511,VALID,0,VALID,23.428,VALID,57,VALID,0.201953,
2011-02-19, 01:35:04,VALID,999.042,VALID,0,VALID,91.2197,VALID,0,VALID,23.4475,VALID,57,VALID,0.337109,
2011-02-19, 01:36:04,VALID,999.042,VALID,0,VALID,91.296,VALID,0,VALID,23.4475,VALID,57,VALID,0.353906,
2011-02-19, 01:37:04,VALID,999.075,VALID,0,VALID,91.3266,VALID,0,VALID,23.428,VALID,57,VALID,0.695313,
2011-02-19, 01:38:04,VALID,999.059,VALID,0,VALID,91.3113,VALID,0,VALID,23.428,VALID,57,VALID,0.748828,
2011-02-19, 01:39:04,VALID,999.057,VALID,0,VALID,91.296,VALID,0,VALID,23.4475,VALID,57,VALID,0.724609,
2011-02-19, 01:40:04,VALID,999.052,VALID,0,VALID,91.2503,VALID,0,VALID,23.4671,VALID,57,VALID,0.736719,
2011-02-19, 01:41:04,VALID,999.009,VALID,0,VALID,91.1892,VALID,0,VALID,23.5061,VALID,57,VALID,0.673437,
2011-02-19, 01:42:04,VALID,998.998,VALID,0,VALID,91.09,VALID,0,VALID,23.5256,VALID,57,VALID,0.664453,
2011-02-19, 01:43:04,VALID,999.015,VALID,0,VALID,90.9985,VALID,0,VALID,23.5256,VALID,57,VALID,0.572266,
2011-02-19, 01:44:04,VALID,998.994,VALID,0,VALID,90.9298,VALID,0,VALID,23.5061,VALID,57,VALID,0.415234,
2011-02-19, 01:45:04,VALID,998.999,VALID,0,VALID,90.8611,VALID,0,VALID,23.5061,VALID,57,VALID,0.415234,
2011-02-19, 01:46:04,VALID,998.993,VALID,0,VALID,90.8077,VALID,0,VALID,23.4458,VALID,57,VALID,0.515625,
2011-02-19, 01:47:04,VALID,999.013,VALID,0,VALID,90.8688,VALID,0.112286,VALID,23.4671,VALID,57,VALID,0.575391,
2011-02-19, 01:48:04,VALID,998.997,VALID,0,VALID,90.9832,VALID,0,VALID,23.4866,VALID,112,VALID,0.812891,
2011-02-19, 01:49:04,VALID,999.022,VALID,0,VALID,91.0748,VALID,0,VALID,23.4866,VALID,112,VALID,0.851953,
2011-02-19, 01:50:04,VALID,999.036,VALID,0,VALID,91.0443,VALID,0,VALID,23.4866,VALID,112,VALID,0.89375,
2011-02-19, 01:51:04,VALID,999.068,VALID,0,VALID,91.029,VALID,0,VALID,23.4866,VALID,122,VALID,0.835156,
2011-02-19, 01:52:04,VALID,999.066,VALID,0,VALID,90.9374,VALID,0,VALID,23.4458,VALID,121,VALID,0.800391,
2011-02-19, 01:53:04,VALID,999.099,VALID,0,VALID,90.9374,VALID,0,VALID,23.4671,VALID,116,VALID,0.833984,
2011-02-19, 01:54:04,VALID,999.074,VALID,0,VALID,90.968,VALID,0,VALID,23.4458,VALID,116,VALID,0.714063,
2011-02-19, 01:55:04,VALID,999.109,VALID,0,VALID,90.9832,VALID,0,VALID,23.4653,VALID,116,VALID,0.548047,
2011-02-19, 01:56:04,VALID,999.07,VALID,0,VALID,91.0214,VALID,0,VALID,23.4866,VALID,116,VALID,0.391797,
2011-02-19, 01:57:04,VALID,999.075,VALID,0,VALID,91.0443,VALID,0,VALID,23.4866,VALID,116,VALID,0.428125,
2011-02-19, 01:58:04,VALID,999.063,VALID,0,VALID,91.0824,VALID,0,VALID,23.4653,VALID,116,VALID,0.316406,
2011-02-19, 01:59:04,VALID,999.064,VALID,0,VALID,91.0824,VALID,0,VALID,23.4866,VALID,116,VALID,0.169141,
2011-02-19, 02:00:04,VALID,999.045,VALID,0,VALID,91.0671,VALID,0,VALID,23.4458,VALID,116,VALID,0.133203,
2011-02-19, 02:01:04,VALID,999.036,VALID,0,VALID,91.0824,VALID,0,VALID,23.4475,VALID,116,VALID,0,
2011-02-19, 02:02:04,VALID,999.058,VALID,0,VALID,91.0977,VALID,0,VALID,23.428,VALID,116,VALID,0,
2011-02-19, 02:03:04,VALID,999.053,VALID,0,VALID,91.1206,VALID,0,VALID,23.428,VALID,116,VALID,0,
2011-02-19, 02:04:05,VALID,999.049,VALID,0,VALID,91.1663,VALID,0,VALID,23.4085,VALID,116,VALID,0,
2011-02-19, 02:05:05,VALID,999.05,VALID,0,VALID,91.2426,VALID,0,VALID,23.428,VALID,116,VALID,0,
2011-02-19, 02:06:05,VALID,999.067,VALID,0,VALID,91.3113,VALID,0,VALID,23.4085,VALID,116,VALID,0.149609,
2011-02-19, 02:07:05,VALID,999.076,VALID,0,VALID,91.38,VALID,0,VALID,23.3872,VALID,116,VALID,0,
2011-02-19, 02:08:05,VALID,999.051,VALID,0,VALID,91.4257,VALID,0,VALID,23.389,VALID,116,VALID,0,
2011-02-19, 02:09:05,VALID,999.07,VALID,0,VALID,91.441,VALID,0,VALID,23.389,VALID,116,VALID,0,
2011-02-19, 02:10:05,VALID,999.05,VALID,0,VALID,91.4944,VALID,0,VALID,23.389,VALID,116,VALID,0.078125,
2011-02-19, 02:11:05,VALID,999.06,VALID,0,VALID,91.5478,VALID,0,VALID,23.3677,VALID,116,VALID,0.112109,
2011-02-19, 02:12:05,VALID,999.046,VALID,0,VALID,91.5936,VALID,0,VALID,23.389,VALID,116,VALID,0,
2011-02-19, 02:13:05,VALID,999.01,VALID,0,VALID,91.6165,VALID,0,VALID,23.389,VALID,116,VALID,0,
2011-02-19, 02:14:05,VALID,999.004,VALID,0,VALID,91.647,VALID,0,VALID,23.3695,VALID,116,VALID,0,
2011-02-19, 02:15:05,VALID,998.996,VALID,0,VALID,91.6851,VALID,0,VALID,23.3677,VALID,116,VALID,0.173438,
2011-02-19, 02:16:05,VALID,998.973,VALID,0,VALID,91.6928,VALID,0,VALID,23.389,VALID,116,VALID,0.065625,
2011-02-19, 02:17:05,VALID,999.001,VALID,0,VALID,91.7233,VALID,0,VALID,23.3695,VALID,116,VALID,0.167578,
2011-02-19, 02:18:05,VALID,998.972,VALID,0,VALID,91.7157,VALID,0.112286,VALID,23.3287,VALID,116,VALID,0.331641,
2011-02-19, 02:19:05,VALID,998.951,VALID,0,VALID,91.7614,VALID,0,VALID,23.35,VALID,116,VALID,0.433203,
2011-02-19, 02:20:05,VALID,998.971,VALID,0,VALID,91.792,VALID,0,VALID,23.3305,VALID,116,VALID,0.475391,
2011-02-19, 02:21:05,VALID,998.944,VALID,0,VALID,91.7843,VALID,0,VALID,23.35,VALID,350,VALID,0.631641,
2011-02-19, 02:22:05,VALID,998.941,VALID,0,VALID,91.792,VALID,0,VALID,23.3305,VALID,349,VALID,0.624219,
2011-02-19, 02:23:05,VALID,998.894,VALID,0,VALID,91.792,VALID,0,VALID,23.3305,VALID,349,VALID,0.599219,
2011-02-19, 02:24:05,VALID,998.915,VALID,0,VALID,91.8148,VALID,0,VALID,23.3305,VALID,349,VALID,0.523438,
2011-02-19, 02:25:05,VALID,998.928,VALID,0,VALID,91.8301,VALID,0,VALID,23.3305,VALID,349,VALID,0.521484,
2011-02-19, 02:26:05,VALID,998.917,VALID,0,VALID,91.8454,VALID,0,VALID,23.3305,VALID,349,VALID,0.487891,
2011-02-19, 02:27:05,VALID,998.927,VALID,0,VALID,91.8835,VALID,0,VALID,23.311,VALID,349,VALID,0.440625,
2011-02-19, 02:28:05,VALID,998.93,VALID,0,VALID,91.914,VALID,0,VALID,23.311,VALID,349,VALID,0.313281,
2011-02-19, 02:29:05,VALID,998.954,VALID,0,VALID,91.9827,VALID,0,VALID,23.3305,VALID,349,VALID,0.187891,
2011-02-19, 02:30:05,VALID,998.958,VALID,0,VALID,91.9903,VALID,0,VALID,23.311,VALID,349,VALID,0.140234,
2011-02-19, 02:31:05,VALID,998.978,VALID,0,VALID,92.0209,VALID,0,VALID,23.3305,VALID,349,VALID,0,
2011-02-19, 02:32:05,VALID,998.981,VALID,0,VALID,92.0666,VALID,0,VALID,23.3305,VALID,349,VALID,0,
2011-02-19, 02:33:05,VALID,999.009,VALID,0,VALID,92.0743,VALID,0,VALID,23.2915,VALID,349,VALID,0.239063,
2011-02-19, 02:34:05,VALID,999.008,VALID,0,VALID,92.1277,VALID,0,VALID,23.2702,VALID,349,VALID,0.221875,
2011-02-19, 02:35:05,VALID,999.022,VALID,0,VALID,92.1429,VALID,0,VALID,23.2915,VALID,349,VALID,0.414844,
2011-02-19, 02:36:05,VALID,999.063,VALID,0,VALID,92.1658,VALID,0,VALID,23.2507,VALID,63,VALID,0.823828,
2011-02-19, 02:37:05,VALID,999.059,VALID,0,VALID,92.1811,VALID,0,VALID,23.2719,VALID,82,VALID,1.025,
2011-02-19, 02:38:05,VALID,999.053,VALID,0,VALID,92.1887,VALID,0,VALID,23.2915,VALID,92,VALID,0.927344,
2011-02-19, 02:39:05,VALID,999.065,VALID,0,VALID,92.1658,VALID,0,VALID,23.2915,VALID,92,VALID,0.948047,
2011-02-19, 02:40:05,VALID,999.06,VALID,0,VALID,92.1734,VALID,0.112286,VALID,23.2915,VALID,92,VALID,0.898438,
2011-02-19, 02:41:05,VALID,999.07,VALID,0,VALID,92.1734,VALID,0,VALID,23.2915,VALID,92,VALID,0.878906,
2011-02-19, 02:42:05,VALID,999.068,VALID,0,VALID,92.1658,VALID,0,VALID,23.2915,VALID,92,VALID,0.829297,
2011-02-19, 02:43:05,VALID,999.056,VALID,0,VALID,92.1658,VALID,0,VALID,23.2915,VALID,92,VALID,0.84375,
2011-02-19, 02:44:05,VALID,999.017,VALID,0,VALID,92.1429,VALID,0,VALID,23.2915,VALID,92,VALID,0.618359,
2011-02-19, 02:45:05,VALID,999.036,VALID,0,VALID,92.1124,VALID,0,VALID,23.2915,VALID,92,VALID,0.730859,
2011-02-19, 02:46:05,VALID,999.049,VALID,0,VALID,92.1124,VALID,0,VALID,23.2719,VALID,92,VALID,0.486328,
2011-02-19, 02:47:05,VALID,999.044,VALID,0,VALID,92.0743,VALID,0,VALID,23.2524,VALID,92,VALID,0.577734,
2011-02-19, 02:48:05,VALID,999.032,VALID,0,VALID,92.0895,VALID,0,VALID,23.2524,VALID,92,VALID,0.528906,
2011-02-19, 02:49:05,VALID,999.047,VALID,0,VALID,92.059,VALID,0,VALID,23.2329,VALID,92,VALID,0.617578,
2011-02-19, 02:50:05,VALID,999.074,VALID,0,VALID,92.059,VALID,0,VALID,23.2329,VALID,92,VALID,0.651172,
2011-02-19, 02:51:05,VALID,999.041,VALID,0,VALID,92.059,VALID,0,VALID,23.2524,VALID,82,VALID,0.667188,
2011-02-19, 02:52:05,VALID,999.053,VALID,0,VALID,92.0743,VALID,0,VALID,23.2524,VALID,82,VALID,0.633984,
2011-02-19, 02:53:05,VALID,999.083,VALID,0,VALID,92.0743,VALID,0,VALID,23.2719,VALID,82,VALID,0.416406,
2011-02-19, 02:54:05,VALID,999.075,VALID,0,VALID,92.059,VALID,0,VALID,23.2719,VALID,82,VALID,0.360547,
2011-02-19, 02:55:05,VALID,999.072,VALID,0,VALID,92.0743,VALID,0,VALID,23.2312,VALID,82,VALID,0.365234,
2011-02-19, 02:56:05,VALID,999.093,VALID,0,VALID,92.0819,VALID,0,VALID,23.2719,VALID,82,VALID,0.00585938,
2011-02-19, 02:57:05,VALID,999.115,VALID,0,VALID,92.1048,VALID,0.112286,VALID,23.2507,VALID,82,VALID,0.130469,
2011-02-19, 02:58:05,VALID,999.076,VALID,0,VALID,92.0971,VALID,0,VALID,23.2524,VALID,82,VALID,0,
2011-02-19, 02:59:05,VALID,999.09,VALID,0,VALID,92.1048,VALID,0.112286,VALID,23.2507,VALID,82,VALID,0.112891,
2011-02-19, 03:00:05,VALID,999.065,VALID,0,VALID,92.1277,VALID,0,VALID,23.2329,VALID,82,VALID,0.245312,
2011-02-19, 03:01:05,VALID,999.037,VALID,0,VALID,92.1277,VALID,0.112286,VALID,23.2719,VALID,82,VALID,0.220703,
2011-02-19, 03:02:05,VALID,999.023,VALID,0,VALID,92.1506,VALID,0.112286,VALID,23.2312,VALID,82,VALID,0.264844,
2011-02-19, 03:03:05,VALID,999.033,VALID,0,VALID,92.1506,VALID,0,VALID,23.2312,VALID,82,VALID,0.34375,
2011-02-19, 03:04:05,VALID,999.012,VALID,0,VALID,92.1506,VALID,0,VALID,23.2524,VALID,82,VALID,0.417188,
2011-02-19, 03:05:05,VALID,999.002,VALID,0,VALID,92.1658,VALID,0,VALID,23.2312,VALID,82,VALID,0.311328,
2011-02-19, 03:06:05,VALID,998.98,VALID,0,VALID,92.1582,VALID,0,VALID,23.2524,VALID,82,VALID,0.183203,
2011-02-19, 03:07:05,VALID,998.967,VALID,0,VALID,92.1582,VALID,0,VALID,23.2524,VALID,82,VALID,0.0449219,
2011-02-19, 03:08:05,VALID,998.991,VALID,0,VALID,92.1353,VALID,0,VALID,23.2329,VALID,82,VALID,0,
2011-02-19, 03:09:05,VALID,998.963,VALID,0,VALID,92.1353,VALID,0,VALID,23.2312,VALID,82,VALID,0,
2011-02-19, 03:10:05,VALID,998.971,VALID,0,VALID,92.1353,VALID,0,VALID,23.2312,VALID,82,VALID,0.101953,
2011-02-19, 03:11:05,VALID,998.969,VALID,0,VALID,92.1277,VALID,0,VALID,23.2524,VALID,82,VALID,0.216016,
2011-02-19, 03:12:05,VALID,998.964,VALID,0,VALID,92.1353,VALID,0,VALID,23.2915,VALID,82,VALID,0.0375,
2011-02-19, 03:13:05,VALID,998.986,VALID,0,VALID,92.1582,VALID,0,VALID,23.2915,VALID,82,VALID,0.227734,
2011-02-19, 03:14:05,VALID,998.999,VALID,0,VALID,92.1506,VALID,0,VALID,23.3127,VALID,82,VALID,0.0449219,
2011-02-19, 03:15:05,VALID,999.015,VALID,0,VALID,92.1582,VALID,0,VALID,23.3323,VALID,82,VALID,0,
2011-02-19, 03:16:05,VALID,999.001,VALID,0,VALID,92.1277,VALID,0,VALID,23.3323,VALID,82,VALID,0,
2011-02-19, 03:17:05,VALID,999.017,VALID,0,VALID,92.1353,VALID,0,VALID,23.3518,VALID,82,VALID,0.0671875,
2011-02-19, 03:18:05,VALID,998.988,VALID,0,VALID,92.1429,VALID,0,VALID,23.3518,VALID,82,VALID,0.0683594,
2011-02-19, 03:19:05,VALID,999,VALID,0,VALID,92.12,VALID,0,VALID,23.3305,VALID,82,VALID,0,
2011-02-19, 03:20:05,VALID,999,VALID,0,VALID,92.1048,VALID,0,VALID,23.3518,VALID,82,VALID,0,
2011-02-19, 03:21:05,VALID,998.988,VALID,0,VALID,92.059,VALID,0,VALID,23.3305,VALID,82,VALID,0,
2011-02-19, 03:22:05,VALID,998.954,VALID,0,VALID,92.0361,VALID,0,VALID,23.3305,VALID,82,VALID,0,
2011-02-19, 03:23:05,VALID,999.003,VALID,0,VALID,92.0132,VALID,0,VALID,23.3518,VALID,82,VALID,0.139453,
2011-02-19, 03:24:05,VALID,998.993,VALID,0,VALID,91.9903,VALID,0,VALID,23.3518,VALID,82,VALID,0.0960938,
2011-02-19, 03:25:05,VALID,998.979,VALID,0,VALID,91.9827,VALID,0,VALID,23.311,VALID,82,VALID,0,
2011-02-19, 03:26:05,VALID,999.021,VALID,0,VALID,91.9751,VALID,0,VALID,23.3323,VALID,82,VALID,0.000390625,
2011-02-19, 03:27:05,VALID,999.034,VALID,0,VALID,91.9445,VALID,0,VALID,23.2915,VALID,82,VALID,0.411328,
2011-02-19, 03:28:05,VALID,999.009,VALID,0,VALID,91.9217,VALID,0,VALID,23.2719,VALID,132,VALID,1.0043,
2011-02-19, 03:29:05,VALID,999.02,VALID,0,VALID,91.8835,VALID,0,VALID,23.2915,VALID,134,VALID,0.833984,
2011-02-19, 03:30:05,VALID,999.054,VALID,0,VALID,91.7309,VALID,0,VALID,23.3305,VALID,134,VALID,0.716797,
2011-02-19, 03:31:05,VALID,999.069,VALID,0,VALID,91.5326,VALID,0,VALID,23.3695,VALID,146,VALID,1.04102,
2011-02-19, 03:32:05,VALID,999.058,VALID,0,VALID,91.2655,VALID,0,VALID,23.3695,VALID,146,VALID,1.06328,
2011-02-19, 03:33:05,VALID,999.087,VALID,0,VALID,90.9451,VALID,0,VALID,23.4103,VALID,146,VALID,0.896875,
2011-02-19, 03:34:05,VALID,999.078,VALID,0,VALID,90.6323,VALID,0,VALID,23.4298,VALID,145,VALID,0.886719,
2011-02-19, 03:35:05,VALID,999.102,VALID,0,VALID,90.4034,VALID,0,VALID,23.428,VALID,145,VALID,0.708984,
2011-02-19, 03:36:05,VALID,999.107,VALID,0,VALID,90.2508,VALID,0,VALID,23.4085,VALID,145,VALID,0.691797,
2011-02-19, 03:37:05,VALID,999.084,VALID,0,VALID,90.1821,VALID,0,VALID,23.389,VALID,145,VALID,0.539844,
2011-02-19, 03:38:05,VALID,999.108,VALID,0,VALID,90.2126,VALID,0,VALID,23.389,VALID,145,VALID,0.486719,
2011-02-19, 03:39:05,VALID,999.128,VALID,0,VALID,90.266,VALID,0,VALID,23.389,VALID,145,VALID,0.509375,
2011-02-19, 03:40:05,VALID,999.124,VALID,0,VALID,90.266,VALID,0,VALID,23.4085,VALID,145,VALID,0.378516,
2011-02-19, 03:41:05,VALID,999.138,VALID,0,VALID,90.2508,VALID,0,VALID,23.4085,VALID,145,VALID,0.371484,
2011-02-19, 03:42:05,VALID,999.132,VALID,0,VALID,90.3194,VALID,0,VALID,23.4085,VALID,145,VALID,0.503906,
2011-02-19, 03:43:05,VALID,999.126,VALID,0,VALID,90.4263,VALID,0,VALID,23.4298,VALID,145,VALID,0.432422,
2011-02-19, 03:44:05,VALID,999.138,VALID,0,VALID,90.4644,VALID,0,VALID,23.4085,VALID,145,VALID,0.581641,
2011-02-19, 03:45:05,VALID,999.146,VALID,0,VALID,90.5712,VALID,0,VALID,23.4085,VALID,145,VALID,0.632813,
2011-02-19, 03:46:05,VALID,999.149,VALID,0,VALID,90.617,VALID,0,VALID,23.4085,VALID,145,VALID,0.399219,
2011-02-19, 03:47:05,VALID,999.157,VALID,0,VALID,90.6246,VALID,0,VALID,23.4103,VALID,145,VALID,0.376953,